[[{"header":{"parameterUnit":"m.s-1","parameterCategory":1,"la1":30.2991,"la2":30.254,"lo1":-89.0895,"lo2":-89.0444,"dy":0.0017,"dx":0.0017,"nx":28,"ny":28,"refTime":"2025-11-20T09:00:00:Z","depth":0,"parameterNumber":2,"parameterNumberName":"U-component_of_WINDS"},"data":[0,0,0,0,0,0,0,0,0,0,0,0,0,0,0,0,0,0,0,0,0,0,0,0,0,0,0,0,0,0,0,0,0,0,0,0,0,0,0,0,0,0,0,0,0,0,0,0,0,0,0,0,0,0,0,0,0,0,-2.6108,-2.6108,0,-2.6106,-2.6106,-2.6106,-2.6023,-2.6021,-2.6019,-2.6017,-2.6016,-2.6018,-2.602,0,0,0,0,0,0,0,0,0,0,0,0,0,-2.6039,-2.604,-2.6108,-2.6108,-2.6108,-2.6106,-2.6106,-2.6106,-2.6024,-2.6021,-2.6018,-2.6016,-2.6015,-2.6018,-2.602,0,0,0,0,0,0,0,0,0,0,0,0,0,-2.6056,-2.6041,-2.6108,-2.6066,-2.6062,-2.6106,-2.6106,-2.6106,-2.6024,-2.6021,-2.6018,-2.6015,-2.6015,-2.6017,-2.602,-2.6104,0,0,-2.603,-2.6031,0,0,0,0,0,0,0,0,-2.6055,-2.6059,-2.6072,-2.6069,-2.6065,-2.6062,-2.6082,-2.6106,-2.6025,-2.6039,-2.6017,-2.6013,-2.6034,-2.6035,-2.6042,-2.6104,-2.6104,-2.603,-2.6032,-2.6033,-2.6034,0,0,0,0,0,0,0,-2.6054,-2.6058,-2.6107,-2.6072,-2.6068,-2.6048,-2.6047,-2.6086,-2.6055,-2.6037,-2.6031,-2.6032,-2.6031,-2.6039,-2.6041,-2.6104,-2.603,-2.6032,-2.6034,-2.6035,-2.6236,-2.6239,0,0,0,0,0,0,-2.6059,-2.6058,-2.6107,-2.6107,-2.6052,-2.6052,-2.605,-2.6066,-2.6054,-2.6049,-2.6035,-2.6028,-2.6036,-2.6038,-2.6041,-2.6139,-2.6033,-2.6036,-2.6037,-2.6233,-2.6237,-2.6241,0,0,0,0,0,0,-2.6057,-2.6064,-2.6107,-2.6081,-2.6085,-2.6056,-2.6074,-2.6068,-2.6076,-2.6052,-2.6046,-2.6049,-2.6033,-2.6037,-2.6089,-2.6138,-2.6037,-2.604,-2.6228,-2.6234,-2.6239,-2.6336,0,0,0,0,0,0,-2.6056,-2.6064,-2.6095,-2.6082,-2.6087,-2.6156,-2.6077,-2.607,-2.6081,-2.6072,-2.6064,-2.6059,-2.6031,-2.6085,-2.6092,-2.614,-2.6042,-2.6224,-2.6231,-2.6237,-2.6328,-2.6343,-2.6357,0,0,0,0,0,-2.6054,-2.6122,-2.6097,-2.6104,-2.6125,-2.6158,-2.6161,-2.6127,-2.6085,-2.6117,-2.6102,-2.6059,-2.6131,-2.6091,-2.6099,-2.6148,-2.6221,-2.6229,-2.6237,-2.6321,-2.634,-2.6356,0,0,0,0,0,0,-2.6141,-2.612,-2.6092,-2.6158,-2.6161,-2.6144,-2.6183,-2.6148,-2.6163,-2.6154,-2.6111,-2.611,-2.617,-2.6164,-2.612,-2.6229,-2.6169,-2.6178,-2.6231,-2.6249,-2.6263,-2.6263,-2.6045,0,0,0,0,0,-2.6168,-2.6197,-2.6177,-2.6237,-2.624,-2.6212,-2.6225,-2.6199,-2.62,-2.62,-2.6189,-2.6192,-2.6215,-2.6231,-2.6251,-2.6327,-2.6324,-2.6364,-2.6379,-2.6391,-2.64,-2.644,-2.6458,-2.6267,-2.6267,-2.6267,0,0,-2.6224,-2.6216,-2.6237,-2.6255,-2.6254,-2.6285,-2.6213,-2.6249,-2.6272,-2.6206,-2.6255,-2.6247,-2.6247,-2.6312,-2.634,-2.6309,-2.6452,-2.6401,-2.6411,-2.6413,-2.645,-2.6468,-2.6485,-2.6272,-2.6271,-2.627,0,0,-2.6343,-2.6339,-2.639,-2.6391,-2.639,-2.6371,-2.6383,-2.6373,-2.6365,-2.6414,-2.6365,-2.6392,-2.6433,-2.6435,-2.6442,-2.6563,-2.6525,-2.6571,-2.6646,-2.6686,-2.6701,-2.6714,-2.6759,-2.6775,-2.658,-2.658,-2.658,0,-2.6413,-2.6458,-2.642,-2.646,-2.6469,-2.6411,-2.6463,-2.6465,-2.6472,-2.648,-2.6445,-2.6496,-2.6492,-2.6557,-2.6587,-2.6594,-2.6607,-2.6571,-2.6702,-2.6715,-2.6727,-2.6768,-2.6785,-2.6586,-2.6585,-2.6584,-2.6584,0,-2.6544,-2.6576,-2.6617,-2.6625,-2.6639,-2.6684,-2.6654,-2.6673,-2.6646,-2.6631,-2.6682,-2.6675,-2.6694,-2.6707,-2.6681,-2.6769,-2.675,-2.671,-2.6648,-2.6751,-2.679,-2.6805,-2.6594,-2.6592,-2.659,-2.6588,0,0,-2.6717,-2.6705,-2.672,-2.6724,-2.672,-2.6744,-2.6787,-2.6805,-2.6822,-2.6829,-2.6865,-2.6901,-2.6864,-2.6872,-2.6845,-2.688,-2.6978,-2.6835,-2.6835,-2.6863,-2.7076,-2.7107,-2.7125,-2.6953,-2.6955,-2.6958,-2.7076,0,-2.6832,-2.6905,-2.6873,-2.6949,-2.6979,-2.6925,-2.6962,-2.6965,-2.6952,-2.6975,-2.6961,-2.6988,-2.6936,-2.6941,-2.6973,-2.6959,-2.702,-2.695,-2.6986,-2.6987,-2.6988,-2.7145,-2.7178,-2.7289,-2.709,-2.7093,-2.7095,0,-2.6976,-2.6989,-2.7069,-2.706,-2.7072,-2.7106,-2.7121,-2.7144,-2.7145,-2.7133,-2.7143,-2.7109,-2.7151,-2.709,-2.7148,-2.7101,-2.7114,-2.711,-2.7113,-2.7115,-2.7048,-2.7153,-2.7324,-2.7341,-2.7118,-2.7116,-2.7114,0,-2.7095,-2.7133,-2.7185,-2.719,-2.7181,-2.7207,-2.7205,-2.7203,-2.7216,-2.7229,-2.7237,-2.7255,-2.7265,-2.728,-2.7252,-2.721,-2.7314,-2.725,-2.7306,-2.7307,-2.7331,-2.733,-2.7508,-2.7338,-2.7338,-2.7338,-2.7337,0,-2.7227,-2.7278,-2.7239,-2.7271,-2.7327,-2.729,-2.7347,-2.7338,-2.7338,-2.7368,-2.7322,-2.7352,-2.7312,-2.7338,-2.7317,-2.7369,-2.7373,-2.7365,-2.7359,-2.737,-2.7371,-2.7378,-2.737,-2.7342,-2.7341,-2.734,-2.734,0,-2.737,-2.7345,-2.7399,-2.7387,-2.7386,-2.7427,-2.7417,-2.7447,-2.7431,-2.747,-2.7477,-2.7453,-2.7481,-2.7455,-2.7481,-2.7466,-2.7536,-2.7518,-2.7536,-2.7531,-2.7589,-2.7584,-2.7778,-2.7801,-2.7617,-2.7618,-2.762,0,-2.7456,-2.7494,-2.7486,-2.7504,-2.7504,-2.7532,-2.7546,-2.7512,-2.7528,-2.7533,-2.7563,-2.7587,-2.7605,-2.7652,-2.7637,-2.7658,-2.764,-2.7707,-2.7643,-2.7653,-2.7642,-2.764,-2.7645,-2.772,-2.7722,-2.7724,-2.7725,0,-2.7612,-2.7598,-2.7619,-2.7638,-2.7655,-2.7668,-2.7676,-2.7693,-2.7658,-2.7678,-2.7707,-2.7721,-2.7748,-2.7773,-2.7789,-2.7787,-2.7751,-2.7746,-2.776,-2.7771,-2.778,-2.7777,-2.7572,-2.7741,-2.774,-2.7738,-2.7738,-2.7737,-2.7729,-2.7761,-2.7761,-2.7787,-2.779,-2.7799,-2.7827,-2.7815,-2.7838,-2.7858,-2.7837,-2.7872,-2.7873,-2.7891,-2.7893,-2.7921,-2.7893,-2.7913,-2.7918,-2.7924,-2.7933,-2.7776,-2.7923,-2.7923,-2.7922,-2.7922,-2.7922,0,-2.7883,-2.7881,-2.7905,-2.7919,-2.794,-2.7904,-2.7912,-2.7932,-2.7963,-2.7968,-2.7986,-2.802,-2.8044,-2.8032,-2.8053,-2.8077,-2.8061,-2.8084,-2.8082,-2.8082,-2.7956,-2.7942,-2.8097,-2.8097,-2.8097,-2.8097,-2.8097,-2.8097,-2.7966,-2.8018,-2.8005,-2.8058,-2.8055,-2.809,-2.8098,-2.8107,-2.811,-2.815,-2.817,-2.8161,-2.8159,-2.818,-2.8201,-2.8197,-2.8207,-2.8236,-2.8226,-2.8108,-2.8091,-2.8075,-2.8061,-2.8239,-2.8239,-2.835,-2.8351,-2.8352]},{"header":{"parameterUnit":"m.s-1","parameterCategory":1,"la1":30.2991,"la2":30.254,"lo1":-89.0895,"lo2":-89.0444,"dy":0.0017,"dx":0.0017,"nx":28,"ny":28,"refTime":"2025-11-20T09:00:00:Z","depth":0,"parameterNumber":3,"parameterNumberName":"V-component_of_WINDS"},"data":[0,0,0,0,0,0,0,0,0,0,0,0,0,0,0,0,0,0,0,0,0,0,0,0,0,0,0,0,0,0,0,0,0,0,0,0,0,0,0,0,0,0,0,0,0,0,0,0,0,0,0,0,0,0,0,0,0,0,-0.05,-0.05,0,-0.0477,-0.0477,-0.0477,-0.0451,-0.045,-0.045,-0.045,-0.0427,-0.0427,-0.0427,0,0,0,0,0,0,0,0,0,0,0,0,0,-0.052,-0.052,-0.05,-0.0499,-0.0499,-0.0477,-0.0477,-0.0477,-0.0451,-0.045,-0.045,-0.0449,-0.0427,-0.0427,-0.0427,0,0,0,0,0,0,0,0,0,0,0,0,0,-0.0506,-0.052,-0.05,-0.0484,-0.0482,-0.0477,-0.0477,-0.0477,-0.0451,-0.045,-0.045,-0.0449,-0.0427,-0.0427,-0.0427,-0.0436,0,0,-0.0426,-0.0425,0,0,0,0,0,0,0,0,-0.0507,-0.0505,-0.0486,-0.0485,-0.0483,-0.0466,-0.0476,-0.0463,-0.0451,-0.0463,-0.045,-0.0449,-0.0441,-0.0439,-0.0436,-0.0435,-0.0434,-0.0426,-0.0425,-0.0425,-0.0425,0,0,0,0,0,0,0,-0.0508,-0.0506,-0.0491,-0.0486,-0.0484,-0.0477,-0.0475,-0.0473,-0.0455,-0.0462,-0.046,-0.0457,-0.044,-0.0437,-0.0436,-0.0434,-0.0426,-0.0425,-0.0425,-0.0425,-0.0438,-0.0438,0,0,0,0,0,0,-0.0511,-0.0507,-0.0492,-0.049,-0.0494,-0.0477,-0.0474,-0.0472,-0.0455,-0.0452,-0.0458,-0.0456,-0.0438,-0.0436,-0.0435,-0.0444,-0.0425,-0.0425,-0.0425,-0.0437,-0.0438,-0.0439,0,0,0,0,0,0,-0.0512,-0.051,-0.0492,-0.0498,-0.0495,-0.0478,-0.0475,-0.0472,-0.0469,-0.0452,-0.0449,-0.0458,-0.0437,-0.0435,-0.0436,-0.0443,-0.0425,-0.0424,-0.0437,-0.0438,-0.0438,-0.0463,0,0,0,0,0,0,-0.0512,-0.051,-0.0514,-0.0498,-0.0495,-0.0494,-0.0476,-0.0472,-0.0468,-0.0466,-0.0452,-0.0449,-0.0436,-0.0436,-0.0435,-0.0442,-0.0424,-0.0436,-0.0437,-0.0438,-0.0461,-0.0464,-0.0467,0,0,0,0,0,-0.0513,-0.0522,-0.0514,-0.0513,-0.0499,-0.0495,-0.0493,-0.0478,-0.0469,-0.0472,-0.0461,-0.0449,-0.0442,-0.0437,-0.0435,-0.0442,-0.0436,-0.0437,-0.0438,-0.046,-0.0463,-0.0467,0,0,0,0,0,0,-0.054,-0.052,-0.0511,-0.0515,-0.0507,-0.049,-0.0494,-0.0483,-0.0477,-0.0475,-0.0457,-0.0454,-0.0456,-0.0449,-0.0443,-0.0449,-0.0437,-0.0438,-0.0454,-0.0457,-0.046,-0.0462,-0.0424,0,0,0,0,0,-0.0546,-0.0544,-0.0527,-0.0532,-0.0528,-0.0512,-0.0509,-0.0498,-0.0489,-0.0485,-0.0475,-0.0466,-0.0461,-0.0459,-0.0454,-0.046,-0.0456,-0.0464,-0.0466,-0.0469,-0.047,-0.0471,-0.0474,-0.0443,-0.0443,-0.0443,0,0,-0.0559,-0.0548,-0.0548,-0.0537,-0.0529,-0.0527,-0.0509,-0.0508,-0.0506,-0.0485,-0.0485,-0.0476,-0.0466,-0.0468,-0.0469,-0.0462,-0.0477,-0.047,-0.0472,-0.0472,-0.0473,-0.0475,-0.0478,-0.0444,-0.0443,-0.0443,0,0,-0.0582,-0.0574,-0.0577,-0.0569,-0.0557,-0.0546,-0.0546,-0.0531,-0.0525,-0.0524,-0.0508,-0.0505,-0.0498,-0.0491,-0.0486,-0.0504,-0.0492,-0.0503,-0.0518,-0.0519,-0.0522,-0.0524,-0.0529,-0.0532,-0.0504,-0.0504,-0.0504,0,-0.06,-0.0596,-0.058,-0.0579,-0.0574,-0.0555,-0.0557,-0.055,-0.0538,-0.0535,-0.0527,-0.0517,-0.0509,-0.0509,-0.0513,-0.051,-0.051,-0.0505,-0.0523,-0.0524,-0.0526,-0.0531,-0.0534,-0.0506,-0.0506,-0.0505,-0.0505,0,-0.0618,-0.0615,-0.0619,-0.0606,-0.0602,-0.0603,-0.0586,-0.0584,-0.0573,-0.0563,-0.0561,-0.055,-0.0542,-0.0541,-0.0532,-0.054,-0.0536,-0.0526,-0.0513,-0.0531,-0.0535,-0.0537,-0.0508,-0.0507,-0.0507,-0.0506,0,0,-0.0658,-0.0635,-0.0636,-0.063,-0.0614,-0.0612,-0.0612,-0.0603,-0.0601,-0.0592,-0.0591,-0.0585,-0.0575,-0.057,-0.0559,-0.056,-0.0574,-0.055,-0.0549,-0.0554,-0.0581,-0.0588,-0.0591,-0.0566,-0.0566,-0.0566,-0.0582,0,-0.0677,-0.0675,-0.0659,-0.0662,-0.0658,-0.0639,-0.0639,-0.0629,-0.0619,-0.0615,-0.0603,-0.0599,-0.0587,-0.0583,-0.0584,-0.0572,-0.0579,-0.0571,-0.0564,-0.0564,-0.0567,-0.0593,-0.0601,-0.0616,-0.0583,-0.0584,-0.0584,0,-0.0699,-0.0691,-0.0693,-0.0676,-0.0674,-0.0674,-0.0664,-0.0661,-0.0649,-0.0641,-0.0635,-0.0622,-0.062,-0.0608,-0.0604,-0.0599,-0.0595,-0.0589,-0.0589,-0.0588,-0.0575,-0.0592,-0.062,-0.0622,-0.0587,-0.0586,-0.0586,0,-0.0727,-0.0716,-0.0716,-0.0711,-0.0692,-0.0692,-0.0684,-0.0671,-0.0667,-0.0658,-0.0655,-0.0647,-0.0642,-0.0636,-0.0621,-0.0613,-0.0618,-0.0606,-0.0612,-0.0612,-0.0613,-0.0613,-0.0641,-0.0612,-0.0612,-0.0612,-0.0612,0,-0.075,-0.0751,-0.0727,-0.0727,-0.0728,-0.071,-0.0711,-0.0701,-0.069,-0.0687,-0.0671,-0.0668,-0.0649,-0.0644,-0.0632,-0.063,-0.0629,-0.0622,-0.0619,-0.0623,-0.0624,-0.062,-0.0619,-0.0613,-0.0613,-0.0612,-0.0612,0,-0.078,-0.0765,-0.0762,-0.0744,-0.0739,-0.0741,-0.0725,-0.0723,-0.0712,-0.0708,-0.0706,-0.0688,-0.0681,-0.0666,-0.0655,-0.0647,-0.0648,-0.0643,-0.0652,-0.065,-0.0656,-0.0656,-0.0682,-0.0684,-0.0655,-0.0655,-0.0656,0,-0.0796,-0.0796,-0.0778,-0.0774,-0.0767,-0.0761,-0.0756,-0.0738,-0.0734,-0.072,-0.072,-0.0712,-0.0704,-0.0694,-0.068,-0.0671,-0.0665,-0.0675,-0.0664,-0.0668,-0.0664,-0.0664,-0.0664,-0.0677,-0.0678,-0.0678,-0.0679,0,-0.0824,-0.0816,-0.0809,-0.0799,-0.0794,-0.0785,-0.0776,-0.0774,-0.0754,-0.0749,-0.0742,-0.0736,-0.0724,-0.0716,-0.0705,-0.0697,-0.0684,-0.0682,-0.0683,-0.0687,-0.0692,-0.0688,-0.0658,-0.0682,-0.0681,-0.0681,-0.0681,-0.0681,-0.0847,-0.0846,-0.0833,-0.0825,-0.0816,-0.0807,-0.0804,-0.0792,-0.0786,-0.0774,-0.0764,-0.0757,-0.0745,-0.0728,-0.0721,-0.0715,-0.0709,-0.071,-0.071,-0.0711,-0.0712,-0.0693,-0.0713,-0.0713,-0.0713,-0.0713,-0.0713,0,-0.0874,-0.0864,-0.0857,-0.0844,-0.0838,-0.0826,-0.0815,-0.0811,-0.0805,-0.0794,-0.0786,-0.0777,-0.0769,-0.0753,-0.0744,-0.0742,-0.0736,-0.074,-0.074,-0.0738,-0.0719,-0.0719,-0.0745,-0.0745,-0.0745,-0.0745,-0.0745,-0.0745,-0.0887,-0.0885,-0.0875,-0.0867,-0.0857,-0.085,-0.0844,-0.0836,-0.0826,-0.0817,-0.081,-0.08,-0.0786,-0.0775,-0.0767,-0.0763,-0.076,-0.0765,-0.0759,-0.0742,-0.0739,-0.0736,-0.0736,-0.0765,-0.0765,-0.0778,-0.0778,-0.0778]}]]